[[{"header":{"parameterUnit":"m.s-1","parameterCategory":1,"la1":30.2991,"la2":30.254,"lo1":-89.0895,"lo2":-89.0444,"dy":0.0017,"dx":0.0017,"nx":28,"ny":28,"refTime":"2023-10-08T09:00:00:Z","depth":0,"parameterNumber":2,"parameterNumberName":"U-component_of_WINDS"},"data":[0,0,0,0,0,0,0,0,0,0,0,0,0,0,0,0,0,0,0,0,0,0,0,0,0,0,0,0,0,0,0,0,0,0,0,0,0,0,0,0,0,0,0,0,0,0,0,0,0,0,0,0,0,0,0,0,0,0,-1.1867,-1.1867,0,-1.1847,-1.1846,-1.1846,-1.1795,-1.1793,-1.1792,-1.1791,-1.1772,-1.1773,-1.1773,0,0,0,0,0,0,0,0,0,0,0,0,0,-1.1862,-1.1862,-1.1867,-1.1867,-1.1866,-1.1847,-1.1846,-1.1846,-1.1795,-1.1793,-1.1792,-1.1791,-1.1772,-1.1773,-1.1773,0,0,0,0,0,0,0,0,0,0,0,0,0,-1.1855,-1.1863,-1.1867,-1.1838,-1.1835,-1.1847,-1.1846,-1.1846,-1.1795,-1.1793,-1.1792,-1.179,-1.1772,-1.1773,-1.1773,-1.1811,0,0,-1.1776,-1.1776,0,0,0,0,0,0,0,0,-1.1856,-1.1856,-1.1843,-1.184,-1.1837,-1.1821,-1.1837,-1.1834,-1.1795,-1.181,-1.1791,-1.1789,-1.179,-1.1789,-1.1789,-1.181,-1.1809,-1.1776,-1.1776,-1.1776,-1.1777,0,0,0,0,0,0,0,-1.1856,-1.1856,-1.1859,-1.1843,-1.1839,-1.1827,-1.1824,-1.1837,-1.181,-1.1809,-1.1805,-1.1803,-1.1788,-1.1788,-1.1788,-1.1809,-1.1776,-1.1776,-1.1777,-1.1777,-1.186,-1.1862,0,0,0,0,0,0,-1.1861,-1.1857,-1.1859,-1.1858,-1.1843,-1.1828,-1.1825,-1.1828,-1.1809,-1.1805,-1.1805,-1.1801,-1.1788,-1.1787,-1.1787,-1.1831,-1.1776,-1.1777,-1.1778,-1.1858,-1.1861,-1.1862,0,0,0,0,0,0,-1.1861,-1.1861,-1.186,-1.1856,-1.1855,-1.183,-1.1834,-1.1829,-1.1829,-1.1806,-1.1801,-1.181,-1.1787,-1.1786,-1.1805,-1.1829,-1.1778,-1.1778,-1.1856,-1.1859,-1.1861,-1.1918,0,0,0,0,0,0,-1.1861,-1.1862,-1.1876,-1.1857,-1.1856,-1.1879,-1.1835,-1.1829,-1.183,-1.1825,-1.181,-1.1806,-1.1785,-1.1805,-1.1806,-1.1829,-1.1779,-1.1854,-1.1858,-1.1861,-1.1914,-1.1922,-1.1929,0,0,0,0,0,-1.1861,-1.1893,-1.1877,-1.1877,-1.1873,-1.188,-1.1879,-1.1855,-1.1832,-1.1846,-1.1832,-1.1806,-1.1826,-1.1807,-1.1808,-1.1832,-1.1853,-1.1857,-1.186,-1.191,-1.192,-1.1929,0,0,0,0,0,0,-1.1915,-1.189,-1.1872,-1.1898,-1.1892,-1.1871,-1.1888,-1.1866,-1.1866,-1.1862,-1.1831,-1.1828,-1.1852,-1.1844,-1.1823,-1.1868,-1.1835,-1.184,-1.1873,-1.1882,-1.1889,-1.1892,-1.1779,0,0,0,0,0,-1.193,-1.1938,-1.1915,-1.1941,-1.1938,-1.1914,-1.1916,-1.1898,-1.189,-1.1887,-1.1874,-1.1868,-1.1873,-1.1877,-1.188,-1.1912,-1.1908,-1.1929,-1.1936,-1.1943,-1.1947,-1.1964,-1.1973,-1.1875,-1.1875,-1.1875,0,0,-1.1961,-1.1948,-1.1955,-1.1951,-1.1944,-1.1954,-1.1912,-1.1924,-1.193,-1.1889,-1.1907,-1.1897,-1.1888,-1.1914,-1.1924,-1.1908,-1.1973,-1.1948,-1.1953,-1.1954,-1.1969,-1.1979,-1.1987,-1.1878,-1.1877,-1.1877,0,0,-1.2023,-1.2014,-1.2034,-1.2028,-1.2017,-1.2,-1.2005,-1.1988,-1.198,-1.1997,-1.1966,-1.1974,-1.1982,-1.1977,-1.1976,-1.2035,-1.2012,-1.2037,-1.2078,-1.2095,-1.2102,-1.2109,-1.2131,-1.214,-1.2042,-1.2042,-1.2042,0,-1.2064,-1.2076,-1.2048,-1.2061,-1.2061,-1.2023,-1.2044,-1.2039,-1.203,-1.2031,-1.2012,-1.2022,-1.2013,-1.2038,-1.2052,-1.2052,-1.2057,-1.204,-1.2103,-1.211,-1.2116,-1.2137,-1.2145,-1.2045,-1.2044,-1.2044,-1.2044,0,-1.2127,-1.2136,-1.2154,-1.2146,-1.2147,-1.2164,-1.2139,-1.2144,-1.2125,-1.211,-1.2128,-1.2116,-1.2116,-1.212,-1.2102,-1.2142,-1.2132,-1.2109,-1.2076,-1.2129,-1.2148,-1.2156,-1.2049,-1.2048,-1.2047,-1.2047,0,0,-1.2224,-1.2199,-1.2207,-1.2203,-1.2187,-1.2194,-1.2209,-1.2209,-1.2214,-1.2209,-1.2222,-1.223,-1.2208,-1.2206,-1.2187,-1.2202,-1.225,-1.2176,-1.2175,-1.2191,-1.2295,-1.2314,-1.2324,-1.2234,-1.2236,-1.2237,-1.2296,0,-1.2283,-1.2308,-1.2283,-1.2313,-1.2321,-1.2285,-1.2298,-1.2291,-1.2278,-1.2283,-1.2268,-1.2275,-1.2245,-1.2244,-1.2256,-1.2242,-1.2271,-1.2237,-1.2247,-1.2248,-1.2252,-1.2333,-1.2353,-1.241,-1.2303,-1.2305,-1.2305,0,-1.2356,-1.2354,-1.2385,-1.2368,-1.237,-1.2383,-1.2381,-1.2386,-1.2377,-1.2366,-1.2364,-1.234,-1.2355,-1.2321,-1.2341,-1.2319,-1.2321,-1.2314,-1.2316,-1.2317,-1.2281,-1.2338,-1.2427,-1.2436,-1.2317,-1.2316,-1.2315,0,-1.2426,-1.243,-1.2449,-1.2447,-1.2427,-1.2437,-1.2429,-1.2418,-1.2419,-1.2417,-1.2418,-1.2418,-1.2418,-1.2418,-1.2396,-1.2373,-1.2419,-1.2383,-1.2411,-1.2412,-1.2424,-1.2424,-1.2516,-1.2423,-1.2423,-1.2423,-1.2423,0,-1.2495,-1.2516,-1.248,-1.2492,-1.2514,-1.2484,-1.2507,-1.2496,-1.2486,-1.2496,-1.2464,-1.2474,-1.2442,-1.2448,-1.2431,-1.245,-1.245,-1.2443,-1.2438,-1.2446,-1.2448,-1.2449,-1.2445,-1.2425,-1.2424,-1.2424,-1.2424,0,-1.2577,-1.2554,-1.2572,-1.2552,-1.2547,-1.2564,-1.2547,-1.2557,-1.2541,-1.2554,-1.2555,-1.253,-1.2536,-1.2513,-1.2515,-1.2503,-1.2533,-1.2521,-1.2536,-1.2533,-1.2562,-1.2561,-1.266,-1.2672,-1.257,-1.2571,-1.2572,0,-1.2624,-1.2639,-1.2619,-1.2623,-1.2617,-1.2623,-1.2624,-1.2596,-1.2598,-1.2588,-1.26,-1.2603,-1.2605,-1.2616,-1.2599,-1.26,-1.2589,-1.2623,-1.2589,-1.2597,-1.2591,-1.2591,-1.2593,-1.2631,-1.2632,-1.2633,-1.2634,0,-1.271,-1.2697,-1.27,-1.2698,-1.27,-1.2698,-1.2693,-1.2698,-1.2667,-1.2671,-1.2677,-1.2678,-1.2679,-1.2683,-1.2681,-1.2673,-1.265,-1.2645,-1.2652,-1.2661,-1.267,-1.2667,-1.2557,-1.2643,-1.2642,-1.2642,-1.2641,-1.2641,-1.2776,-1.2788,-1.2776,-1.278,-1.2773,-1.277,-1.2779,-1.2763,-1.2767,-1.2766,-1.2749,-1.2758,-1.2748,-1.2742,-1.2737,-1.2744,-1.2728,-1.2737,-1.274,-1.2743,-1.2749,-1.2668,-1.2743,-1.2743,-1.2743,-1.2742,-1.2742,0,-1.2862,-1.2852,-1.2856,-1.285,-1.2853,-1.2828,-1.2822,-1.2827,-1.2835,-1.2827,-1.2829,-1.2835,-1.2838,-1.2821,-1.2822,-1.2831,-1.282,-1.2833,-1.2833,-1.2831,-1.2763,-1.2757,-1.2842,-1.2842,-1.2842,-1.2841,-1.2841,-1.2841,-1.2907,-1.2925,-1.2911,-1.2927,-1.2917,-1.2925,-1.2923,-1.292,-1.2914,-1.2922,-1.2925,-1.2913,-1.2902,-1.2901,-1.2904,-1.2899,-1.2901,-1.2918,-1.2909,-1.2846,-1.2836,-1.2827,-1.2822,-1.2918,-1.2918,-1.2977,-1.2978,-1.2978]},{"header":{"parameterUnit":"m.s-1","parameterCategory":1,"la1":30.2991,"la2":30.254,"lo1":-89.0895,"lo2":-89.0444,"dy":0.0017,"dx":0.0017,"nx":28,"ny":28,"refTime":"2023-10-08T09:00:00:Z","depth":0,"parameterNumber":3,"parameterNumberName":"V-component_of_WINDS"},"data":[0,0,0,0,0,0,0,0,0,0,0,0,0,0,0,0,0,0,0,0,0,0,0,0,0,0,0,0,0,0,0,0,0,0,0,0,0,0,0,0,0,0,0,0,0,0,0,0,0,0,0,0,0,0,0,0,0,0,-2.8908,-2.8908,0,-2.8944,-2.8945,-2.8945,-2.8933,-2.8932,-2.8931,-2.893,-2.8966,-2.8967,-2.8969,0,0,0,0,0,0,0,0,0,0,0,0,0,-2.8827,-2.8828,-2.8908,-2.8908,-2.8909,-2.8944,-2.8945,-2.8945,-2.8933,-2.8932,-2.8931,-2.893,-2.8965,-2.8967,-2.8969,0,0,0,0,0,0,0,0,0,0,0,0,0,-2.8862,-2.8829,-2.8908,-2.8907,-2.8907,-2.8944,-2.8945,-2.8945,-2.8933,-2.8932,-2.8931,-2.893,-2.8964,-2.8967,-2.8969,-2.9008,0,0,-2.8977,-2.8978,0,0,0,0,0,0,0,0,-2.886,-2.8865,-2.8907,-2.8907,-2.8908,-2.8933,-2.8929,-2.8966,-2.8933,-2.8923,-2.893,-2.8929,-2.8955,-2.8959,-2.8968,-2.901,-2.9011,-2.8977,-2.8979,-2.898,-2.898,0,0,0,0,0,0,0,-2.8858,-2.8864,-2.8922,-2.8907,-2.8908,-2.8904,-2.8908,-2.8936,-2.8945,-2.8924,-2.8923,-2.8928,-2.8955,-2.8966,-2.8969,-2.9012,-2.8977,-2.8979,-2.8981,-2.8982,-2.909,-2.9091,0,0,0,0,0,0,-2.8855,-2.8862,-2.8921,-2.8923,-2.8881,-2.8907,-2.8911,-2.8926,-2.8945,-2.8947,-2.8929,-2.8927,-2.8962,-2.8966,-2.897,-2.9019,-2.898,-2.8982,-2.8983,-2.9088,-2.909,-2.9091,0,0,0,0,0,0,-2.8854,-2.8861,-2.8919,-2.8892,-2.89,-2.891,-2.8926,-2.8927,-2.8937,-2.8949,-2.895,-2.8938,-2.8961,-2.8966,-2.8999,-2.902,-2.8983,-2.8985,-2.9087,-2.9089,-2.9091,-2.9116,0,0,0,0,0,0,-2.8851,-2.886,-2.8875,-2.8893,-2.8901,-2.8949,-2.8927,-2.8929,-2.8942,-2.894,-2.8957,-2.8959,-2.8961,-2.8996,-2.9002,-2.9023,-2.8987,-2.9085,-2.9088,-2.909,-2.9113,-2.9118,-2.9123,0,0,0,0,0,-2.8849,-2.888,-2.8876,-2.8883,-2.892,-2.895,-2.8955,-2.8957,-2.8944,-2.8959,-2.8967,-2.8959,-2.9016,-2.8999,-2.9006,-2.9028,-2.9084,-2.9087,-2.909,-2.9111,-2.9117,-2.9123,0,0,0,0,0,0,-2.8864,-2.8882,-2.8878,-2.8916,-2.8932,-2.8948,-2.8968,-2.8963,-2.8982,-2.8979,-2.898,-2.8984,-2.9018,-2.9026,-2.9007,-2.9067,-2.9048,-2.9053,-2.9062,-2.9068,-2.9073,-2.9071,-2.8989,0,0,0,0,0,-2.8872,-2.8895,-2.8909,-2.8942,-2.895,-2.8957,-2.897,-2.8971,-2.8986,-2.8993,-2.9002,-2.9018,-2.9039,-2.9053,-2.9074,-2.9113,-2.9118,-2.9132,-2.9137,-2.914,-2.9145,-2.9168,-2.9175,-2.9102,-2.9102,-2.9101,0,0,-2.8888,-2.8901,-2.8915,-2.8945,-2.8957,-2.8982,-2.8963,-2.8989,-2.9007,-2.8996,-2.9029,-2.9037,-2.9054,-2.9091,-2.9107,-2.9098,-2.9166,-2.9144,-2.9147,-2.915,-2.9172,-2.9179,-2.9186,-2.9104,-2.9103,-2.9103,0,0,-2.8931,-2.8942,-2.8972,-2.8985,-2.9003,-2.9008,-2.9015,-2.9033,-2.9038,-2.9071,-2.9064,-2.9085,-2.9121,-2.9135,-2.9146,-2.9195,-2.9189,-2.9201,-2.9227,-2.925,-2.9256,-2.9261,-2.9281,-2.9288,-2.9205,-2.9205,-2.9205,0,-2.8949,-2.8986,-2.8987,-2.9014,-2.9028,-2.902,-2.9051,-2.9062,-2.9087,-2.9096,-2.9085,-2.9133,-2.9143,-2.9185,-2.9197,-2.9205,-2.9214,-2.92,-2.9255,-2.926,-2.9265,-2.9284,-2.9291,-2.9207,-2.9207,-2.9207,-2.9207,0,-2.9008,-2.9033,-2.9055,-2.908,-2.9096,-2.9124,-2.913,-2.9146,-2.9144,-2.9151,-2.9185,-2.9197,-2.9221,-2.923,-2.9229,-2.9272,-2.9266,-2.9255,-2.9236,-2.9274,-2.9292,-2.9299,-2.9209,-2.9209,-2.9208,-2.9208,0,0,-2.9062,-2.9089,-2.9097,-2.9109,-2.913,-2.9149,-2.9177,-2.9202,-2.9216,-2.9233,-2.9257,-2.9289,-2.928,-2.9293,-2.9292,-2.9312,-2.9353,-2.9299,-2.93,-2.9311,-2.9403,-2.9413,-2.9421,-2.9348,-2.9349,-2.935,-2.9403,0,-2.9108,-2.9159,-2.9162,-2.9208,-2.9233,-2.9226,-2.925,-2.9266,-2.9272,-2.9294,-2.93,-2.9324,-2.9309,-2.9317,-2.9336,-2.9344,-2.9372,-2.934,-2.9372,-2.9373,-2.937,-2.943,-2.944,-2.9489,-2.9409,-2.9411,-2.9411,0,-2.9169,-2.919,-2.924,-2.9259,-2.9269,-2.9291,-2.9315,-2.9335,-2.9352,-2.9355,-2.9371,-2.9368,-2.9397,-2.9375,-2.9416,-2.9394,-2.9407,-2.9413,-2.9415,-2.942,-2.9396,-2.9439,-2.9504,-2.9513,-2.9422,-2.9421,-2.942,0,-2.9207,-2.9247,-2.9282,-2.9292,-2.9315,-2.9331,-2.9341,-2.9357,-2.9372,-2.9392,-2.9402,-2.9424,-2.9437,-2.9454,-2.9458,-2.9442,-2.9499,-2.9477,-2.9504,-2.9504,-2.9518,-2.9517,-2.9589,-2.9522,-2.9522,-2.9522,-2.9522,0,-2.926,-2.9291,-2.93,-2.9322,-2.9356,-2.9358,-2.9392,-2.9401,-2.9416,-2.9439,-2.9433,-2.9455,-2.9457,-2.948,-2.9482,-2.9517,-2.9522,-2.9526,-2.9527,-2.9528,-2.9528,-2.9538,-2.9536,-2.9524,-2.9524,-2.9523,-2.9523,0,-2.9309,-2.9316,-2.9354,-2.9372,-2.9378,-2.9403,-2.9418,-2.9439,-2.9445,-2.9475,-2.9482,-2.9491,-2.9518,-2.9523,-2.9553,-2.9555,-2.9597,-2.9593,-2.9592,-2.9592,-2.9619,-2.9617,-2.9701,-2.9713,-2.9637,-2.9637,-2.9638,0,-2.9343,-2.9367,-2.9389,-2.9405,-2.9416,-2.9441,-2.9457,-2.946,-2.9476,-2.9499,-2.9518,-2.9544,-2.9565,-2.9607,-2.9617,-2.964,-2.9638,-2.9666,-2.9642,-2.9643,-2.9642,-2.9641,-2.9645,-2.9672,-2.9672,-2.9673,-2.9674,0,-2.9405,-2.9407,-2.9431,-2.9456,-2.9476,-2.9495,-2.9514,-2.9527,-2.9532,-2.9551,-2.9579,-2.9595,-2.9628,-2.9654,-2.9678,-2.9687,-2.9682,-2.9681,-2.9689,-2.9691,-2.9691,-2.9694,-2.9607,-2.9679,-2.9679,-2.9678,-2.9678,-2.9678,-2.9449,-2.9471,-2.949,-2.9517,-2.9531,-2.9549,-2.9571,-2.958,-2.9603,-2.9631,-2.963,-2.9662,-2.9679,-2.9711,-2.9722,-2.9746,-2.9737,-2.9748,-2.9751,-2.9754,-2.9758,-2.9685,-2.975,-2.975,-2.975,-2.975,-2.9749,0,-2.9512,-2.9525,-2.9549,-2.9576,-2.9598,-2.9591,-2.9611,-2.9629,-2.9657,-2.9674,-2.9696,-2.9728,-2.9754,-2.9766,-2.9791,-2.9809,-2.9807,-2.9815,-2.9815,-2.9818,-2.9763,-2.9755,-2.9817,-2.9817,-2.9817,-2.9817,-2.9817,-2.9817,-2.9548,-2.9585,-2.959,-2.9635,-2.9647,-2.9678,-2.9691,-2.9707,-2.9721,-2.9759,-2.9781,-2.9788,-2.9803,-2.983,-2.9854,-2.9856,-2.9867,-2.9877,-2.9879,-2.9828,-2.9822,-2.9815,-2.9808,-2.9879,-2.9879,-2.9932,-2.9933,-2.9933]}]]